Location: Ebersheim
(48.3033°N, 7.4991°E)
Time: 22:10:32
(UTC+00:00)

USA 238 - Pass Details

Date: 27 February 2020
Orbit: 1017 x 1195 km, 63.4° (Epoch: 05 April)

Event Time Altitude Azimuth Distance (km) Brightness Sun altitude
Rises 18:06:51 0° 316° (NW) 3,913 7.4 -10.2°
Reaches altitude 10° 18:09:40 10° 323° (NW) 2,980 6.6 -10.7°
Maximum altitude 18:16:24 43° 34° (NNE) 1,564 4.3 -11.8°
Enters shadow 18:21:57 16° 99° (E) 2,641 5.1 -12.7°
